Location: Marsån
(66.4167°N, 22.2833°E)
Time: 10:54:33
(UTC+00:00)

ERS-1 Rocket - Pass Details

Date: 24 February 2024
Orbit: 750 x 755 km, 98.3° (Epoch: 16 April)

Event Time Altitude Azimuth Distance (km) Brightness Sun altitude
Exits shadow 16:45:17 11° 91° (E) 2,217 4.7 -8.8°
Maximum altitude 16:49:12 26° 37° (NE) 1,452 4.1 -9.2°
Drops below altitude 10° 16:53:21 10° 342° (NNW) 2,296 5.7 -9.6°
Sets 16:55:57 0° 330° (NNW) 3,222 6.6 -9.8°
